Regional Weather Roundup
Issued by NWS

Home | Current Version | Previous Version | Graphics & Text | Print | Product List | Glossary On
Versions: 1 2 3 4 5 6 7 8 9 10 11 12 13 14 15 16 17 18 19 20 21 22 23 24 25 26 27 28 29 30 31 32 33 34 35 36 37 38 39 40 41 42 43 44 45 46 47 48 49 50
000
ASUS43 KDMX 191307
RWRIA

WEATHER ROUNDUP FOR IOWA
NATIONAL WEATHER SERVICE DES MOINES IA
700 AM CST FRI DEC 19 2014

NOTE: "FAIR" INDICATES FEW OR NO CLOUDS BELOW 12,000 FEET WITH NO
SIGNIFICANT WEATHER AND/OR OBSTRUCTIONS TO VISIBILITY.

* - THESE STATIONS ARE NOT NWS STATIONS...THUS NOT UNDER NWS
QUALITY CONTROL.  THEY ALSO DO NOT REPORT WEATHER SUCH
AS PRECIPITATION OR FOG.

IAZ001>003-012>014-020>022-031>034-043>046-191400-
   NORTHWEST IOWA

CITY           SKY/WX    TMP DP  RH WIND       PRES   REMARKS
CARROLL *      CLOUDY    30  28  93 S7        30.22S FOG     WCI  23
CHEROKEE *     CLOUDY    30  28  93 S3        30.19S FOG
DENISON *      CLOUDY    30  30 100 S5        30.19S FOG     WCI  25
LE MARS *      CLOUDY    30  30 100 S9        30.19S FOG     WCI  22
ORANGE CITY *  CLOUDY    30  27  86 S7        30.17S FOG     WCI  23
SHELDON *      CLOUDY    28  28 100 S8        30.17S FOG     WCI  20
SIOUX CITY     CLOUDY    31  28  89 S6        30.20R FOG     WCI  25
SPENCER        CLOUDY    29  26  89 S8        30.19S FOG     WCI  21
STORM LAKE *   CLOUDY    28  28 100 S6        30.19F FOG     WCI  22
$$

IAZ055>058-069>071-079>083-090>094-191400-
   SOUTHWEST IOWA

CITY           SKY/WX    TMP DP  RH WIND       PRES   REMARKS
ATLANTIC *     CLOUDY    30  30 100 S5        30.22S FOG     WCI  25
AUDUBON *      MOCLDY    28  25  86 S6        30.22S HAZE    WCI  22
CLARINDA *     CLOUDY    30  30 100 S5        30.26S FOG     WCI  25
COUNCIL BLFS * CLOUDY    30  30 100 S5        30.20S FOG     WCI  25
CRESTON *      CLOUDY    28  28 100 SE5       30.23S WCI  23
HARLAN  *      CLOUDY    30  30 100 S5        30.25S FOG     WCI  25
LAMONI         CLOUDY    28  26  92 CALM      30.25R
RED OAK *      CLOUDY    30  30 100 S5        30.23F FOG     WCI  25
SHENANDOAH *   CLOUDY    30  30 100 CALM      30.25S FOG
$$

IAZ047>049-059>061-072>074-084-191400-
   CENTRAL IOWA

CITY           SKY/WX    TMP DP  RH WIND       PRES   REMARKS
AMES           CLOUDY    27  23  85 SE3       30.26R
ANKENY *       CLOUDY    28  27  93 CALM      30.27R
CHARITON *     CLOUDY    28  27  93 SE3       30.26R
DES MOINES     LGT SNOW  29  25  85 SE5       30.27R FOG     WCI  24
GRINNELL*      CLOUDY    27  23  86 SE5       30.27R WCI  21
KNOXVILLE *    CLOUDY    27  25  93 CALM      30.26R
MARSHALLTOWN   CLOUDY    25  22  88 SE5       30.26R WCI  19
PELLA *        MOCLDY    28  25  86 SE3       30.29R
PERRY *        CLOUDY    28  28 100 SE6       30.24S FOG     WCI  22
$$

IAZ004>006-015-016-023>025-035-036-191400-
   NORTH CENTRAL IOWA

CITY           SKY/WX    TMP DP  RH WIND       PRES   REMARKS
ALGONA *       CLOUDY    27  27 100 S7        30.23R WCI  19
CLARION *      CLOUDY    27  27 100 SE6       30.23F WCI  20
ESTHERVILLE    CLOUDY    26  25  96 S10       30.19F FOG     WCI  16
FORT DODGE *   CLOUDY    27  25  93 S3        30.24R
MASON CITY     CLOUDY    24  21  88 SE7       30.25S WCI  16
FOREST CITY *  CLOUDY    27  23  86 S6        30.23S WCI  20
IOWA FALLS *   CLOUDY    25  23  93 SE3       30.26R
$$

IAZ007>011-017>019-026>030-037>042-050>054-066-191400-
   NORTHEAST IOWA

CITY           SKY/WX    TMP DP  RH WIND       PRES   REMARKS
CEDAR RAPIDS   CLOUDY    23  20  88 SE5       30.28R WCI  17
CHARLES CITY * CLOUDY    25  21  86 SE6       30.26S WCI  18
CLINTON *      CLEAR     12   9  85 CALM      30.33R
DECORAH *      CLOUDY    23  19  86 CALM      30.25S
DUBUQUE        CLOUDY    23  19  85 CALM      30.27S
MONTICELLO *   CLOUDY    23  21  93 CALM      30.29R
OELWEIN *      CLOUDY    23  21  93 CALM      30.27R
WATERLOO       CLOUDY    25  20  81 SE3       30.27S
$$

IAZ064-065-067-068-078-191400-
   EAST CENTRAL IOWA

CITY           SKY/WX    TMP DP  RH WIND       PRES   REMARKS
DAVENPORT      PTCLDY    15  11  83 CALM      30.31R
IOWA CITY      CLEAR     22  19  89 E3        30.32R
MT. PLEASANT * CLOUDY    27  23  86 E5        30.30S WCI  21
MUSCATINE *    CLOUDY    25  19  80 CALM      30.32S
QUAD CITIES    CLEAR     16  12  84 CALM      30.32R
$$

IAZ062-063-075>077-085>089-095>099-191400-
   SOUTHEAST IOWA

CITY           SKY/WX    TMP DP  RH WIND       PRES   REMARKS
BURLINGTON     CLOUDY    27  22  81 E5        30.29S WCI  22
FAIRFIELD *    CLOUDY    27  23  86 E3        30.29S
FORT MADISON * CLOUDY    28  27  93 E5        30.30S WCI  23
KEOKUK *       CLOUDY    28  25  86 CALM      30.29S
OSKALOOSA *    CLOUDY    27  23  86 SE3       30.29R
CENTERVILLE *  CLOUDY    27  27 100 E3        30.27S
OTTUMWA        CLOUDY    27  23  85 SE6       30.27S WCI  20
WASHINGTON *   CLOUDY    27  27 100 E3        30.29F
$$

ABBREVIATIONS USED IN REMARKS
   TC - TEMPERATURES IN CELSIUS
  WCI - WIND CHILL INDEX
   HX - HEAT INDEX
  VSB - VISIBILITY
$$



USA.gov is the U.S. government's official web portal to all federal, state and local government web resources and services.